Location: St. Louis
(38.6270°N, 90.1994°W)
Time: 03:03:10
(UTC-05:00)

Hubble Space Telescope - Visible Passes

Search period start: 28 October 2021 00:00
Search period end: 07 November 2021 00:00
Orbit: 535 x 539 km, 28.5° (Epoch: 27 October)

Date Brightness Start Highest point End Pass type
(mag) Time Alt. Az. Time Alt. Az. Time Alt. Az.
28 Oct 3.2 20:05:48 10° SSW 20:06:46 13° S 20:06:46 13° S visible
29 Oct 2.9 19:54:18 10° SSW 19:56:21 16° S 19:56:21 16° S visible
30 Oct 2.7 19:42:53 10° SSW 19:45:37 17° S 19:45:54 17° SSE visible
31 Oct 2.6 19:31:33 10° SW 19:34:25 18° S 19:35:26 17° SSE visible
01 Nov 2.7 19:20:16 10° SW 19:23:13 19° S 19:24:58 15° SE visible
02 Nov 2.7 19:09:01 10° SW 19:12:01 20° S 19:14:30 12° SE visible
03 Nov 2.8 18:57:49 10° SW 19:00:50 20° S 19:03:50 10° SE visible
03 Nov 3.7 20:39:09 10° SW 20:39:22 11° SW 20:39:22 11° SW visible
04 Nov 2.9 18:46:39 10° SW 18:49:37 19° S 18:52:36 10° SE visible
04 Nov 3.6 20:28:23 10° SW 20:28:59 11° SSW 20:28:59 11° SSW visible
05 Nov 3.0 18:35:31 10° SW 18:38:25 19° S 18:41:19 10° SE visible
05 Nov 3.6 20:18:04 10° SSW 20:18:40 10° SSW 20:18:40 10° SSW visible
06 Nov 3.1 18:24:25 10° SW 18:27:12 18° S 18:29:59 10° SE visible
